Wind_Speed
9 7 6 6 6 4 2 3 2 2 3 5 4 4 2 3 4 5 7 8 6 2 4 7 7 7 6 6 8 7 7 2 3 4 2 6 24 29 24 29 31 29 29 27 26 24 22 23 22 23 23 24 24 24 25 24 24 24 25 26 25 26 26 27 27 28 28 28 28 27 27 27 26 25 24 23 23 22 21 20 20 19 19 18 17 18 17 17 18 19 18 18 17 17 16 15 14
8 6 5 4 7 4 1 3 3 3 4 5 2 4 4 4 7 9 9 8 6 6 10 11 10 10 8 7 6 6 9 7 4 6 5 19 28 24 28 31 32 31 30 28 27 25 24 24 23 23 23 23 24 24 24 24 24 24 24 24 25 25 25 26 26 26 26 27 27 26 25 25 25 25 23 22 22 21 20 19 19 19 18 17 17 17 17 16 16 17 16 15 15 15 15 14 14
6 6 7 6 5 3 1 1 3 3 5 4 2 3 6 7 9 11 12 12 12 12 12 11 9 7 8 10 8 6 5 5 9 10 9 24 22 21 32 31 32 32 30 30 28 27 25 24 24 24 23 24 24 24 24 24 24 24 24 23 24 25 25 25 25 24 24 24 24 25 24 23 23 23 22 21 20 20 19 18 18 18 17 17 16 16 15 15 15 14 14 13 13 12 12 13 13
6 6 8 7 2 1 1 3 2 3 5 4 3 3 7 9 10 11 12 13 13 12 10 9 7 3 9 13 6 7 6 3 10 11 8 18 21 27 34 32 33 31 31 31 29 28 26 25 25 24 24 24 24 24 24 24 24 23 23 23 23 24 24 24 24 23 23 23 22 23 23 23 22 22 21 20 19 18 18 17 17 16 16 15 15 14 14 13 12 12 12 11 11 10 10 11 11
6 6 9 8 1 1 2 2 0 3 4 5 4 4 6 10 11 11 9 10 9 10 9 8 5 3 9 9 4 5 7 7 10 13 13 18 28 33 34 33 34 31 31 31 30 29 26 26 26 25 25 24 24 24 24 24 24 23 23 23 23 23 23 23 23 23 22 22 21 22 22 22 21 20 20 19 19 18 17 16 16 16 15 14 14 13 13 12 10 10 9 9 9 8 8 8 9
3 3 9 8 2 1 3 2 2 1 4 5 5 5 8 11 11 12 10 10 9 10 10 9 9 7 6 4 4 5 10 11 10 14 19 25 32 35 35 34 32 31 31 31 31 29 27 26 26 26 25 25 24 24 24 24 24 23 23 23 23 22 22 22 22 22 22 21 21 20 21 21 20 19 18 18 17 16 15 15 14 14 14 13 13 11 11 11 9 9 8 7 7 7 7 7 8
0 1 4 3 3 1 3 3 3 3 5 5 8 7 10 12 12 14 12 11 10 9 9 9 12 10 6 4 5 8 13 14 13 18 26 32 36 37 36 33 31 31 30 31 30 28 27 26 26 26 25 25 24 24 23 23 23 23 23 23 22 22 22 21 21 21 21 20 20 20 20 20 19 18 18 16 15 14 13 13 12 12 12 11 11 11 10 9 8 8 8 7 6 6 6 7 8
0 1 1 3 3 2 3 5 4 4 3 5 8 10 12 15 14 14 13 11 8 7 9 9 12 11 7 6 5 9 16 19 22 29 34 37 38 37 35 32 30 29 29 30 29 28 27 25 26 25 24 24 24 23 23 23 23 23 23 22 22 22 22 21 21 21 21 20 20 20 20 20 19 18 17 16 15 14 13 12 12 11 11 10 10 9 9 8 8 7 7 7 6 6 5 6 7
1 1 1 4 2 3 3 4 4 4 3 6 8 10 13 14 14 15 14 11 9 9 11 8 10 13 8 9 8 8 16 26 33 35 36 37 37 35 33 31 31 30 29 29 28 27 26 25 25 24 24 23 23 23 22 23 22 22 22 22 21 21 21 21 21 21 20 20 19 19 19 19 18 18 17 15 15 14 13 12 11 11 10 9 8 8 7 7 7 6 6 7 6 6 5 5 6
1 2 0 3 2 4 4 3 3 4 1 4 8 11 11 12 13 15 14 13 13 12 11 9 12 15 11 10 8 7 19 32 35 32 34 35 33 32 30 30 32 32 31 29 28 28 26 25 25 24 24 23 23 23 22 22 22 22 22 22 21 21 21 20 21 20 20 19 19 19 19 18 17 17 16 15 14 14 13 12 11 11 10 9 7 7 7 6 5 5 5 5 6 6 6 5 6
1 2 1 2 2 3 3 4 4 4 4 0 7 10 10 14 14 13 15 15 14 15 14 12 13 14 13 9 5 11 27 34 32 30 32 32 31 30 28 29 32 33 32 30 29 29 27 26 25 25 24 24 23 22 22 22 21 22 21 22 21 21 20 20 20 20 19 19 19 18 18 18 17 16 15 15 14 13 12 12 11 10 10 9 8 8 7 6 5 5 5 6 5 6 6 6 7
2 3 3 2 1 0 3 4 6 5 3 4 4 4 9 15 14 12 15 16 15 17 14 9 11 12 12 7 5 16 26 28 29 31 31 31 30 29 28 29 32 32 31 30 29 29 28 26 25 24 24 23 22 22 22 22 21 21 21 21 21 20 19 19 19 19 19 18 18 18 17 16 16 15 14 14 13 12 11 11 10 10 9 9 9 9 8 7 7 6 6 6 6 6 6 6 7
2 1 4 2 2 2 3 2 4 4 4 7 4 5 8 11 13 13 13 16 16 14 10 10 13 12 11 7 8 14 19 25 30 30 31 31 29 29 29 30 32 32 31 30 30 29 28 27 25 24 23 22 21 21 21 21 21 20 20 20 20 19 18 18 18 18 18 18 18 17 16 16 15 14 13 13 12 11 11 10 10 9 9 9 8 8 8 8 8 8 7 8 8 7 7 7 7
3 2 4 1 2 1 1 0 3 4 6 6 5 12 12 6 9 12 12 15 11 8 11 14 15 13 11 9 8 9 15 27 31 31 31 30 29 29 28 29 32 32 31 30 30 29 29 27 26 24 23 22 21 21 21 20 20 20 19 19 19 19 18 17 17 17 17 17 17 17 16 15 15 14 13 12 12 11 10 10 10 9 9 9 8 8 9 9 8 9 8 9 9 9 7 8 8
3 1 4 1 4 3 1 1 4 6 6 5 8 17 15 9 9 9 6 10 8 9 12 12 10 10 11 13 9 9 19 31 32 33 31 29 30 29 27 29 31 31 31 30 28 28 29 27 26 25 24 23 22 21 20 20 20 20 19 19 18 18 18 17 17 17 17 16 16 16 15 15 14 14 13 13 12 12 11 11 10 9 9 9 9 9 9 9 8 9 9 9 10 9 8 8 9
2 2 4 3 3 4 2 2 5 6 5 4 10 18 17 12 10 10 6 7 9 8 7 6 4 6 14 13 14 20 29 32 31 34 31 29 30 29 28 28 30 31 30 29 28 28 28 27 26 25 24 22 21 20 20 20 21 20 18 18 17 17 16 16 16 16 16 15 15 15 14 14 14 13 13 13 12 12 12 11 11 10 9 9 9 9 9 8 8 9 9 9 9 9 8 8 9
3 3 2 2 2 3 2 1 2 5 6 4 8 16 18 10 9 9 9 11 10 5 4 2 1 7 12 11 21 32 34 32 31 33 31 29 27 26 26 27 28 28 28 29 29 28 27 26 26 25 23 21 20 20 20 20 20 20 18 17 16 16 15 15 15 15 15 14 14 14 13 14 13 13 13 13 12 12 11 10 11 10 10 10 10 9 9 8 8 8 8 9 8 9 9 9 8
3 2 0 2 2 2 2 3 3 4 7 7 8 13 17 11 6 6 8 11 10 8 8 8 10 10 13 18 29 32 32 32 31 32 28 26 24 21 22 25 26 25 27 28 28 29 27 26 25 24 23 21 20 20 20 20 19 18 17 17 16 16 15 15 15 14 14 14 14 13 13 14 13 13 13 13 13 13 12 10 11 11 10 10 10 10 9 8 8 8 9 8 8 8 9 9 9
3 2 1 3 4 2 2 4 3 5 9 9 10 12 13 9 6 4 6 8 9 11 8 11 14 12 15 21 26 27 27 26 27 28 25 23 21 19 18 21 23 24 25 26 26 28 27 26 25 24 22 21 20 19 19 19 18 16 16 16 15 15 15 15 14 14 14 13 13 13 14 14 14 14 14 13 13 13 12 11 12 12 11 10 10 11 10 9 8 8 9 8 8 9 9 9 9
3 3 2 5 6 2 2 1 4 8 11 12 10 11 12 7 4 4 8 8 8 11 8 10 13 13 14 16 20 23 21 20 22 24 22 20 19 19 18 19 20 22 23 23 24 25 27 27 25 23 22 22 21 19 18 17 16 15 15 15 15 15 14 14 13 13 13 14 14 14 14 14 14 14 13 13 12 13 13 13 13 12 11 10 11 11 11 9 8 9 8 9 10 10 10 10 10
2 4 4 5 3 1 5 4 9 12 12 12 10 13 13 7 6 6 9 9 5 6 10 13 15 15 15 14 17 20 18 17 18 20 19 19 19 19 19 18 20 21 21 20 22 23 25 26 25 23 22 21 20 19 17 16 15 14 14 14 15 14 14 14 14 14 15 15 16 15 15 15 14 14 12 12 12 13 13 14 13 13 12 12 12 12 11 10 9 9 9 11 12 11 11 10 10
3 1 6 5 4 4 3 5 15 13 12 13 11 12 9 6 8 6 8 7 3 6 10 15 17 16 17 16 16 16 16 14 14 17 18 18 19 19 19 20 20 20 20 20 21 23 25 25 25 24 22 21 19 18 16 15 14 14 15 15 15 15 15 15 15 16 16 16 16 16 16 15 15 14 12 13 13 13 12 13 14 15 14 13 14 12 12 11 9 10 10 12 12 11 11 10 10
4 2 1 3 5 6 1 7 15 11 13 12 9 8 8 10 9 7 8 4 4 9 12 15 16 17 19 17 15 14 14 13 14 17 17 19 20 20 21 22 21 21 20 20 20 22 24 24 24 24 23 21 18 17 15 15 15 15 15 16 17 17 16 16 16 17 17 16 17 16 17 16 16 15 13 13 13 13 12 13 15 16 14 15 15 13 12 12 10 10 11 12 12 12 11 11 10
6 1 2 2 4 7 5 9 12 12 13 10 10 9 10 13 8 6 9 6 6 13 12 13 14 17 19 15 13 13 14 15 15 18 19 21 22 21 23 23 23 22 20 20 20 22 23 24 24 24 23 21 19 17 15 14 14 15 17 18 19 18 18 18 18 18 17 17 17 17 17 17 17 16 15 15 14 13 12 12 15 17 16 15 15 14 14 13 12 11 12 13 12 12 12 12 11
5 1 1 1 3 6 8 10 12 13 12 10 13 12 11 13 9 7 9 8 9 15 12 13 13 14 15 13 13 12 12 14 16 18 19 22 24 24 24 24 24 23 22 21 21 22 23 23 24 24 23 22 21 18 16 14 15 19 21 21 21 20 20 20 19 19 18 18 18 18 18 17 18 19 18 16 15 14 13 13 15 17 17 17 16 16 15 14 13 13 13 14 14 13 13 12 11
2 3 3 3 3 6 8 9 11 10 9 12 16 13 10 11 9 8 8 7 9 13 13 13 13 13 12 11 12 12 12 13 16 18 20 23 25 24 24 25 25 24 23 23 24 24 24 23 23 24 23 23 23 21 20 20 21 24 25 24 24 23 22 22 21 21 21 20 20 20 20 20 20 21 20 18 16 15 15 14 15 17 19 18 18 18 17 16 15 15 15 16 15 14 14 13 12
4 4 3 5 5 6 6 7 9 7 9 16 16 11 6 4 6 7 6 8 11 12 11 10 10 10 9 9 11 12 12 15 18 19 19 22 24 25 26 26 26 25 25 24 24 24 23 23 23 23 22 22 23 24 26 28 27 27 28 27 27 26 24 24 24 24 23 23 22 21 23 23 23 24 22 21 19 17 16 16 15 18 20 20 20 20 19 18 17 16 16 16 16 15 14 14 13
3 3 4 4 4 3 5 9 10 7 8 15 17 11 7 6 7 8 6 8 12 12 10 9 8 5 6 8 8 8 10 15 21 20 19 21 23 26 28 27 27 26 26 26 25 25 24 23 22 21 21 20 22 26 28 29 29 29 30 31 30 29 27 27 28 28 27 26 25 24 25 25 26 26 24 23 22 20 19 18 18 19 20 20 21 21 20 19 18 16 16 17 18 17 16 16 15
0 5 4 1 2 1 5 9 9 8 8 14 17 10 8 7 8 9 8 10 13 12 10 8 8 7 6 6 6 5 7 12 17 17 19 24 26 28 29 29 30 29 27 24 22 21 21 22 21 20 20 20 23 26 27 27 28 28 29 30 29 30 31 31 32 31 31 29 28 28 27 25 26 26 25 25 24 22 22 21 20 20 21 21 21 23 21 20 19 17 17 18 19 19 18 17 16
1 3 3 2 5 2 4 7 8 11 8 8 11 6 5 7 8 8 9 12 14 11 9 7 7 7 6 6 5 4 5 10 13 16 20 24 27 29 31 31 29 25 20 16 16 16 19 23 23 21 22 24 26 27 27 28 28 28 27 26 27 28 31 34 33 32 32 31 29 29 27 25 25 25 26 27 25 24 24 23 22 22 22 22 23 24 23 21 20 19 19 20 21 20 19 18 17
1 2 3 3 1 5 3 5 11 11 2 4 12 6 5 7 7 7 7 13 15 10 8 7 7 7 7 6 6 5 3 5 9 14 20 24 26 27 30 28 23 22 22 21 22 22 23 26 27 26 27 29 30 31 32 32 29 28 27 26 25 27 30 32 33 33 33 32 30 29 28 26 25 25 26 28 27 25 24 24 24 23 24 25 25 25 24 22 21 20 20 20 22 22 21 19 18
1 3 2 2 2 5 3 1 11 13 3 6 14 7 5 7 8 8 7 11 14 11 8 7 8 7 7 6 6 6 6 8 9 7 14 20 21 24 26 22 21 22 25 27 28 26 24 26 28 29 31 32 33 33 32 28 24 25 27 27 27 27 29 30 31 31 31 32 33 33 31 29 27 25 26 28 29 27 26 26 26 25 25 26 27 26 25 23 21 21 21 21 22 22 22 21 19
4 3 3 1 3 3 2 4 6 15 6 3 10 8 5 6 8 8 8 12 13 11 9 8 8 7 7 6 6 6 7 9 11 10 9 15 17 20 22 17 18 19 19 22 24 24 23 25 29 31 31 32 32 30 25 21 21 24 27 28 27 28 28 25 26 27 27 29 32 34 32 30 29 27 27 28 29 29 29 29 28 26 25 25 26 26 25 24 23 22 22 22 23 23 23 23 21
4 0 3 3 4 2 4 3 3 9 9 6 8 9 7 6 8 9 10 12 12 11 9 8 7 6 6 5 6 6 7 7 7 11 8 12 14 17 17 13 11 14 16 16 18 21 24 26 29 31 30 29 27 25 22 22 24 26 28 27 26 28 24 18 19 23 24 27 30 31 32 31 30 29 29 30 30 31 30 30 29 28 26 25 25 26 25 25 24 24 23 23 23 24 25 24 23
2 3 3 3 5 4 5 6 2 8 13 10 10 9 9 8 9 10 10 12 13 10 9 7 6 7 6 5 6 5 6 6 5 12 12 9 10 12 13 12 10 11 13 11 12 19 23 21 24 28 28 27 26 24 22 23 24 24 26 27 28 29 25 20 21 23 23 26 28 28 29 31 33 32 33 33 32 32 31 29 29 28 27 26 26 26 26 25 25 25 24 24 24 25 27 26 25
6 6 4 5 6 4 4 8 7 11 12 9 12 11 10 10 9 10 10 11 13 10 8 7 6 6 6 5 5 5 6 5 5 13 17 13 12 10 11 17 18 13 12 11 14 20 19 16 19 24 25 24 24 22 21 22 23 24 26 27 28 29 28 25 25 25 22 23 25 27 26 28 33 35 35 34 33 33 33 31 29 29 28 27 27 27 27 27 26 26 25 25 25 26 28 28 27
5 2 4 5 6 4 5 9 8 11 11 5 11 14 11 11 10 10 11 11 12 10 8 7 6 6 6 6 5 5 5 3 6 13 16 15 14 11 11 20 24 16 11 13 17 18 17 16 17 19 19 19 20 19 17 20 21 21 24 26 25 26 26 25 26 28 26 24 24 28 28 26 31 35 34 34 34 34 34 33 31 30 29 28 28 28 28 28 27 27 26 26 26 27 28 29 28
5 6 7 4 4 2 2 8 9 7 8 5 8 12 9 8 9 9 11 12 10 10 10 9 8 7 6 7 6 5 3 2 5 9 13 14 13 11 9 15 20 16 7 8 12 14 15 17 18 18 18 19 20 19 19 22 24 24 26 26 24 25 25 25 29 30 29 27 26 28 28 25 28 32 32 32 33 33 33 33 32 30 29 29 28 27 28 29 28 28 27 27 27 28 29 28 27
7 6 7 4 4 2 4 3 5 3 5 4 6 10 6 4 6 7 8 10 8 8 10 10 10 8 6 6 5 5 4 3 3 5 9 13 13 11 8 9 12 14 10 3 6 10 13 18 19 18 18 17 17 17 18 22 28 29 27 24 22 24 25 25 28 29 28 27 28 31 31 27 29 32 31 31 34 33 32 33 32 31 30 30 29 28 28 29 29 29 29 29 28 27 27 26 26
6 6 7 3 2 4 2 2 3 4 5 7 8 7 4 4 4 3 4 8 8 7 9 9 9 9 7 7 6 5 4 4 4 4 6 10 12 11 10 8 9 11 14 8 3 5 9 12 13 11 12 12 12 11 11 15 20 21 20 21 22 24 26 26 26 26 26 25 26 30 32 30 31 33 31 31 34 34 33 34 34 33 32 32 32 30 29 30 31 30 31 31 29 25 23 23 25
5 5 5 5 4 5 4 3 3 7 6 9 11 7 3 2 4 4 3 7 8 8 9 7 6 7 7 6 6 6 5 5 5 5 4 6 9 9 8 7 6 8 10 10 7 5 6 8 8 9 10 10 11 10 8 9 11 13 15 18 20 22 24 26 25 22 23 24 25 29 31 30 32 32 30 31 33 33 34 34 33 35 35 33 32 32 31 32 32 31 32 32 31 28 24 21 22
4 0 3 5 4 4 4 5 5 7 3 5 7 6 1 3 3 6 5 6 7 7 7 7 6 6 6 7 7 6 6 5 5 5 4 4 7 7 6 4 3 3 4 4 4 4 4 6 7 9 11 12 13 14 14 12 12 13 15 17 19 20 20 23 22 19 18 18 21 26 30 31 30 28 28 31 32 32 32 31 30 33 34 31 30 31 32 33 32 32 32 31 31 32 26 20 20
3 2 5 5 4 3 4 5 5 4 4 7 4 5 3 3 3 6 7 7 7 5 7 8 6 6 6 7 7 7 6 5 5 5 5 5 6 5 3 1 2 2 3 5 5 3 4 5 7 9 12 14 16 16 16 15 16 17 18 19 19 20 21 23 21 18 16 17 18 20 22 24 23 21 22 27 30 31 30 28 27 28 28 28 28 30 31 33 33 32 32 32 32 32 27 24 25
1 4 4 4 3 2 1 4 4 2 4 3 2 5 5 4 4 5 7 9 7 6 7 8 7 8 8 8 7 7 7 7 6 5 5 6 7 6 4 2 1 1 4 6 8 9 9 9 10 12 14 16 17 18 18 18 18 19 19 20 20 20 22 24 23 20 18 18 17 18 18 19 20 19 20 21 23 27 28 26 25 25 25 25 24 25 27 30 33 32 31 31 32 31 30 32 30
5 5 2 3 2 2 2 2 2 1 3 0 2 4 4 3 3 3 6 8 7 8 10 9 9 9 8 8 8 7 8 7 7 7 6 8 10 9 7 4 2 1 1 5 7 8 10 11 11 13 14 15 17 18 20 19 19 20 20 20 21 22 22 23 23 22 20 17 14 17 18 19 19 19 20 20 17 20 24 24 24 24 24 24 23 23 25 28 32 33 32 31 32 31 33 34 30
5 0 5 5 4 3 4 0 1 3 3 3 7 5 4 3 4 5 5 6 9 9 9 9 8 8 8 8 8 7 6 6 5 6 8 10 12 10 7 4 2 2 1 4 5 5 7 9 11 12 13 14 15 16 17 18 18 20 22 23 23 24 24 23 23 23 23 20 17 18 18 16 16 16 18 18 16 17 19 20 22 23 26 26 25 26 28 30 32 33 33 33 32 32 34 35 31
1 6 6 6 6 5 4 1 4 4 2 6 8 8 6 2 4 6 6 5 10 11 7 7 7 7 7 7 7 7 6 5 5 5 6 8 9 8 6 5 3 3 4 5 6 6 7 9 11 13 13 15 16 18 19 19 20 20 23 26 27 27 26 22 21 23 24 23 20 19 18 16 17 19 17 15 17 19 18 18 20 22 26 28 28 30 32 33 34 34 33 32 32 33 34 34 33
5 5 4 4 5 5 5 4 5 3 4 6 4 5 6 3 4 8 9 4 10 14 10 10 10 8 8 7 6 7 6 5 5 5 5 6 8 7 6 4 4 6 7 7 6 6 7 8 10 11 13 15 16 18 19 20 21 20 21 24 25 26 26 23 23 26 25 25 24 21 17 15 18 22 22 21 21 20 20 21 23 26 29 31 33 34 34 34 35 35 33 31 31 33 33 32 32
6 5 5 5 4 4 4 4 2 1 6 4 1 3 2 3 4 6 10 7 9 12 10 12 13 11 9 7 6 6 5 5 6 5 5 5 7 6 5 4 7 9 8 7 6 6 6 6 8 10 13 14 14 16 17 17 19 19 20 21 22 23 22 21 23 25 24 24 25 22 18 16 16 19 23 25 23 21 23 27 29 30 31 34 36 35 33 33 34 35 34 32 31 32 33 32 32
4 3 4 5 2 3 2 3 2 2 5 4 2 3 1 3 3 4 6 9 9 8 9 11 12 11 9 7 7 6 5 5 6 5 5 5 6 5 4 6 10 10 7 6 6 5 4 5 7 11 14 14 14 16 15 16 17 19 20 20 20 18 15 14 15 18 20 21 21 20 19 20 19 18 18 19 20 19 22 25 27 28 30 31 33 32 30 30 32 34 36 35 35 36 37 35 35
1 2 5 5 4 4 2 3 2 2 5 5 5 3 1 1 4 6 2 8 8 9 9 9 9 9 8 7 6 6 5 5 5 5 5 6 7 6 6 9 10 8 6 6 6 5 4 5 8 10 13 14 15 16 15 15 17 18 19 18 15 12 11 11 9 9 12 13 14 12 13 16 19 17 16 18 20 20 21 24 25 28 31 30 28 26 24 24 24 25 29 31 34 38 38 36 38
2 2 5 2 4 5 3 3 5 3 2 3 3 2 1 1 3 6 4 10 9 10 10 9 8 7 8 8 6 6 6 5 5 5 5 6 8 6 7 10 9 6 5 5 6 5 5 5 7 8 11 13 15 16 15 15 16 17 18 16 13 12 12 13 10 8 8 9 10 11 13 16 20 21 22 24 25 24 26 29 29 32 35 33 31 27 24 23 22 21 23 27 31 35 35 35 39
1 3 1 3 4 6 4 2 1 3 2 2 1 2 2 2 4 6 5 10 9 9 10 9 8 9 9 7 6 6 6 6 6 6 6 7 9 7 8 9 7 4 4 5 6 5 5 5 6 8 9 12 14 16 15 15 15 16 17 16 14 14 14 15 13 11 11 12 13 15 17 19 21 22 23 24 25 27 28 29 30 32 34 33 33 31 29 28 27 26 26 26 29 32 33 33 36
4 0 3 3 2 4 4 1 3 4 2 3 1 3 3 1 1 2 4 9 8 9 10 8 7 10 10 7 7 7 6 7 6 6 7 7 8 8 9 8 5 3 3 5 6 4 4 4 6 7 9 12 13 13 13 14 15 16 16 15 15 14 14 15 15 13 13 14 15 16 16 18 18 19 20 21 23 25 26 27 29 30 30 31 31 31 30 32 32 32 31 30 30 31 33 34 35
5 3 3 3 2 1 2 2 1 1 1 3 2 1 4 3 4 6 8 11 11 10 8 8 9 10 10 8 8 7 6 6 6 6 6 5 7 11 11 8 4 4 5 5 4 3 3 4 6 7 9 11 10 10 13 16 16 15 15 15 14 14 15 14 13 13 13 14 15 15 15 16 16 17 18 20 21 23 24 26 27 28 30 32 33 32 32 33 33 35 35 34 31 30 32 36 36
3 2 2 2 3 3 1 2 3 3 2 2 1 1 3 4 6 10 12 13 13 11 8 9 10 11 10 9 8 7 7 6 6 6 4 4 9 13 12 8 6 6 5 4 2 2 2 5 7 8 10 11 9 9 14 17 15 14 14 15 15 15 16 15 13 13 14 15 15 15 15 16 16 18 20 21 22 23 25 26 26 28 31 33 35 35 35 34 32 33 34 33 31 29 30 35 37
2 3 2 2 1 1 1 1 2 4 3 2 2 2 5 5 5 10 13 12 12 12 10 9 10 11 10 10 9 7 7 6 5 5 5 6 10 13 12 10 8 6 4 3 1 1 3 5 7 8 11 11 9 10 14 15 15 15 16 16 16 17 17 16 14 13 15 15 14 14 15 16 17 19 20 20 21 22 24 26 27 29 31 33 35 36 35 34 32 33 33 32 31 29 29 32 35
5 3 2 2 1 3 2 3 3 2 4 4 4 3 6 5 4 9 11 10 10 11 11 10 10 11 10 9 8 7 7 6 5 5 5 6 10 13 13 10 8 6 4 3 1 0 2 5 6 8 10 10 9 11 14 15 15 16 17 17 16 16 17 17 15 14 14 14 13 13 13 15 17 17 17 17 18 19 21 23 25 27 30 31 33 35 36 34 31 31 32 31 29 28 28 31 33
Wind_Direction
231 234 219 216 201 191 209 171 73 357 82 79 87 85 103 107 94 80 65 77 88 75 81 82 80 81 96 119 132 102 51 67 167 142 181 146 141 149 155 152 151 147 143 141 139 139 137 135 133 131 128 126 125 125 125 125 126 126 126 126 125 125 125 125 125 124 124 124 124 123 124 124 125 123 120 118 118 118 117 118 119 119 121 119 118 115 114 115 117 117 118 119 118 118 119 122 125
223 225 202 180 172 160 235 181 75 22 65 75 97 112 130 102 88 91 89 93 97 99 91 90 87 83 91 96 99 77 36 0 104 109 107 128 132 144 153 153 151 147 143 142 141 141 140 138 135 133 131 129 128 128 129 129 129 129 128 128 127 126 126 126 125 124 124 124 124 124 124 124 124 123 120 119 118 118 117 116 116 116 118 118 116 115 115 115 115 116 117 116 115 115 116 120 123
205 206 172 151 160 172 265 95 86 74 85 99 112 144 129 108 110 107 110 116 116 114 107 106 97 90 83 68 48 62 58 8 95 98 107 129 131 145 153 153 151 147 144 144 143 143 143 141 139 136 135 133 132 132 132 132 132 131 131 130 129 128 128 128 127 125 125 124 126 126 126 125 126 125 122 119 118 118 117 116 115 116 116 115 114 115 116 117 119 118 118 117 115 116 117 120 123
182 184 165 162 152 163 53 60 113 106 111 133 119 163 135 126 126 114 117 121 125 121 114 111 93 82 87 91 90 80 94 71 102 107 118 138 144 150 153 153 150 148 146 147 145 146 146 144 143 140 139 137 136 136 136 135 134 134 134 133 132 131 130 130 130 129 128 127 127 129 129 127 128 129 125 121 120 119 118 119 119 118 117 117 117 118 119 119 121 122 123 123 122 121 121 124 128
187 187 180 183 122 92 93 62 340 94 139 160 140 185 146 137 131 117 118 113 117 113 113 113 97 107 98 109 136 95 115 118 109 112 117 137 146 150 153 152 150 148 149 149 148 148 148 147 145 143 142 140 140 140 139 139 137 137 136 136 136 135 134 134 135 134 133 131 131 132 133 134 132 132 130 127 127 125 124 125 125 124 122 122 122 124 126 126 128 128 130 131 129 129 131 132 134
204 186 188 192 234 135 80 41 318 297 209 164 139 178 146 138 132 121 116 100 90 95 104 104 104 107 93 73 67 123 149 128 115 119 124 137 148 153 153 151 149 149 152 152 151 149 150 150 148 147 145 144 144 143 142 142 141 140 139 139 139 139 138 139 139 138 137 136 135 135 136 137 136 135 134 133 133 132 131 132 132 129 127 129 130 130 131 132 135 134 137 139 134 138 143 142 143
259 59 181 186 292 131 63 336 280 240 217 156 140 153 138 133 133 124 115 103 89 89 93 97 113 103 88 91 80 137 145 125 124 131 135 144 151 153 152 151 149 151 154 154 153 152 153 153 151 150 149 147 147 146 145 144 143 142 143 143 143 143 143 143 142 141 141 140 140 140 139 139 141 142 140 139 139 137 136 137 137 133 132 136 135 136 137 138 143 145 148 150 145 147 152 152 154
276 342 150 84 348 17 31 314 288 210 174 136 147 148 139 137 136 125 119 116 112 107 94 101 113 93 89 111 100 125 125 122 129 134 140 147 151 151 151 151 150 152 156 157 156 154 154 154 154 153 151 151 149 148 147 146 146 145 146 146 146 146 146 147 147 146 144 144 146 144 142 142 144 145 145 145 143 141 141 143 142 138 137 139 139 140 142 144 148 151 153 159 160 156 160 160 161
147 228 334 78 39 3 349 304 289 247 150 128 149 149 143 140 134 125 124 121 120 112 103 113 106 95 96 93 89 101 109 121 129 135 142 148 151 150 152 154 153 155 158 159 157 155 155 156 155 154 154 153 152 151 151 150 150 149 148 148 149 149 150 150 150 150 149 149 150 147 145 145 146 147 148 148 146 145 143 145 143 141 141 143 145 144 147 151 150 153 157 164 166 160 161 167 171
135 197 166 80 65 3 341 313 291 291 268 140 147 151 143 135 130 128 129 124 121 109 103 105 94 103 108 94 90 105 120 127 130 135 142 147 148 150 153 156 158 158 160 161 159 158 157 158 157 157 157 157 157 155 154 154 153 152 151 151 151 152 152 153 153 153 153 153 153 151 149 149 150 151 151 150 149 147 146 146 146 146 147 150 154 155 160 162 161 165 170 172 169 167 167 176 186
341 267 98 78 33 8 327 310 311 311 287 77 134 150 136 131 132 131 127 122 119 115 118 107 97 107 104 94 92 122 130 133 136 140 144 146 148 151 153 157 162 161 161 162 161 160 159 160 160 160 160 160 160 159 158 156 156 156 155 155 154 155 155 156 156 156 157 157 157 156 155 155 156 156 155 155 154 153 152 150 152 156 157 161 167 171 174 170 177 180 182 186 181 180 177 181 187
327 312 54 15 323 255 268 294 315 306 297 30 95 149 129 133 130 131 127 123 124 126 137 128 120 119 105 104 117 132 135 138 143 145 147 148 149 152 154 160 165 162 161 162 162 162 161 162 163 162 162 162 163 162 161 159 159 160 160 160 160 159 159 159 160 160 161 162 162 162 162 163 164 164 163 163 162 162 161 158 161 166 167 173 178 180 183 181 186 192 194 197 194 197 190 184 188
207 219 74 332 258 176 272 279 306 314 7 25 43 47 87 125 123 129 126 126 134 136 144 137 134 122 112 123 130 141 144 146 148 148 150 150 150 152 157 164 166 164 163 163 163 164 164 164 165 164 164 165 165 165 165 164 163 165 166 166 164 164 163 164 165 165 166 167 168 169 169 170 171 172 170 170 170 170 170 166 169 175 177 184 188 187 191 192 195 202 206 205 205 208 201 190 197
187 187 111 298 285 164 259 249 333 36 41 9 46 60 58 62 108 124 125 128 132 131 131 135 132 111 116 131 137 156 152 153 152 152 154 152 151 153 157 162 165 165 164 165 165 166 166 166 167 166 167 168 169 170 169 170 168 170 171 170 168 168 168 169 171 172 173 172 173 174 175 175 175 177 176 176 177 177 176 174 178 184 188 192 196 196 197 201 203 207 210 212 214 210 204 198 204
194 159 93 29 330 340 331 82 6 64 53 11 70 74 63 38 74 88 95 116 107 118 126 139 133 106 145 157 156 168 154 156 155 153 155 152 153 154 155 158 162 164 165 167 166 167 168 168 169 169 171 171 173 174 173 173 174 175 172 171 171 171 171 174 176 177 178 178 178 179 179 179 179 180 180 182 183 183 182 180 185 191 197 201 203 203 205 209 206 207 209 210 216 212 208 205 206
154 80 62 28 335 322 307 5 8 59 49 36 89 86 75 43 54 61 35 75 102 129 131 169 184 132 166 167 151 153 152 157 154 152 151 147 151 152 152 155 159 162 165 168 167 168 168 169 172 171 174 175 175 175 176 177 177 176 172 172 173 173 175 176 179 180 181 181 181 182 182 184 183 183 184 187 189 189 189 185 188 196 201 205 206 207 210 213 206 204 205 205 211 210 209 208 208
68 71 54 351 316 297 292 336 31 79 66 61 91 96 97 78 65 74 62 68 88 104 77 100 43 116 150 152 143 146 151 152 146 145 145 143 147 148 150 153 156 160 165 169 169 169 169 171 173 173 174 177 176 175 177 179 177 174 171 173 175 176 178 180 183 183 183 183 184 186 186 188 188 189 190 193 194 194 196 191 192 200 203 208 210 210 211 209 205 204 203 204 207 206 209 206 203
65 80 129 283 265 269 248 186 190 114 89 80 86 97 108 115 117 104 76 70 77 71 62 74 67 88 117 129 138 144 149 149 141 140 142 144 148 149 148 151 155 160 165 169 170 170 171 173 174 174 174 175 177 177 178 177 175 172 170 175 177 181 183 184 188 188 189 188 189 192 192 194 194 195 198 198 199 200 202 199 200 207 207 209 212 213 213 208 204 206 207 207 208 209 215 209 198
124 115 105 234 224 253 237 173 163 111 101 88 87 93 99 112 130 122 96 94 95 85 70 80 87 97 112 127 137 142 147 147 141 138 141 145 148 148 146 150 155 161 165 167 169 171 174 175 175 176 175 175 177 179 178 175 174 173 174 178 182 185 187 190 192 194 197 196 197 200 201 202 201 201 202 202 205 206 206 204 205 209 208 207 210 214 215 211 204 206 209 207 210 213 218 217 203
158 124 119 238 223 237 317 65 81 98 103 86 85 90 88 92 93 100 112 110 103 107 110 101 110 123 125 131 135 140 143 142 138 134 137 141 142 144 145 149 153 159 163 165 168 171 175 176 177 178 179 179 180 181 181 181 180 180 181 183 187 190 193 197 200 203 206 207 207 208 208 209 207 206 205 206 210 211 209 207 207 208 207 207 210 213 216 216 208 207 210 206 211 215 218 221 211
140 121 160 227 200 104 317 359 74 95 102 91 89 85 84 83 78 100 118 108 98 126 137 133 136 139 135 137 138 141 141 138 136 131 132 135 137 141 145 150 152 157 161 163 168 173 177 178 178 179 181 182 184 186 187 190 191 189 190 191 194 196 199 204 207 211 213 214 214 214 214 215 214 211 209 212 216 219 218 215 214 212 207 205 209 212 218 224 215 209 212 211 216 218 220 225 219
104 196 185 194 129 107 305 61 90 100 101 96 90 87 97 97 75 82 103 110 160 160 146 143 145 146 143 144 145 143 140 141 141 136 133 134 138 137 141 146 149 155 159 164 170 177 181 181 182 182 181 183 187 190 191 196 200 200 202 202 202 203 206 210 212 216 216 215 215 216 216 218 219 216 216 220 223 226 227 226 224 218 209 204 210 213 217 225 219 213 217 219 222 223 224 229 228
96 296 199 152 124 118 191 91 97 101 97 97 97 99 110 93 69 52 69 79 173 150 144 146 145 144 144 146 147 144 144 148 148 147 140 136 138 136 138 143 148 155 161 167 173 179 184 185 185 184 182 184 188 193 196 202 208 211 212 212 211 210 211 215 218 220 220 217 215 216 216 218 221 223 226 230 232 232 234 233 227 221 213 207 212 214 213 219 218 217 223 226 228 230 230 232 233
95 17 7 88 115 114 113 102 104 107 105 109 110 105 93 87 78 47 46 33 116 134 139 142 139 139 142 145 147 144 147 151 151 154 147 140 142 142 143 145 151 158 163 171 176 179 185 188 188 187 185 185 188 192 198 207 216 221 220 219 218 215 214 218 221 223 223 222 219 217 217 219 223 226 232 235 237 238 240 239 228 222 219 215 217 217 213 216 220 223 228 232 232 234 236 236 237
83 115 278 95 116 124 116 107 111 110 110 111 100 91 88 93 90 70 47 35 112 135 137 136 134 138 145 147 146 144 147 152 153 154 150 146 146 148 151 153 157 162 166 173 180 183 188 192 192 193 190 189 189 189 193 205 221 228 225 223 222 218 218 220 222 224 224 224 222 219 219 222 225 227 231 235 237 241 244 246 238 227 224 223 223 224 220 219 225 230 235 238 237 238 240 243 242
177 173 191 133 143 151 135 123 121 117 114 108 98 96 106 112 96 68 47 51 110 132 131 134 136 143 151 147 147 146 150 156 159 159 155 151 149 149 154 158 162 167 172 177 183 188 193 195 196 197 195 193 191 188 191 202 214 222 223 224 225 221 220 221 221 223 223 225 225 223 225 224 226 229 231 233 235 240 245 248 242 229 228 229 228 230 228 224 228 232 237 240 240 241 244 248 248
201 181 153 140 172 165 137 122 118 114 111 108 106 111 112 105 93 78 50 69 102 117 119 126 131 144 149 147 152 152 156 161 164 162 154 152 153 153 157 162 166 172 175 179 185 190 195 198 201 201 200 198 195 194 200 207 210 215 220 223 224 223 223 224 224 225 224 226 226 226 230 228 226 229 231 232 232 236 240 245 240 229 227 230 231 233 232 229 229 232 237 241 243 245 247 250 251
181 149 116 145 186 157 109 112 119 108 104 113 111 105 83 57 84 103 94 83 98 108 106 103 103 108 121 137 150 153 160 162 163 162 155 159 161 159 163 166 166 171 178 183 189 193 196 202 205 205 205 204 205 209 214 216 213 212 217 220 221 220 221 224 226 229 229 228 227 225 227 226 224 227 229 229 228 230 234 239 239 232 228 229 232 233 235 234 232 233 238 242 243 245 247 248 248
44 122 132 212 5 82 132 123 131 121 123 128 111 86 67 79 98 109 108 92 90 97 96 94 96 88 89 111 122 131 154 159 163 166 163 164 166 165 167 172 173 174 179 184 188 190 198 205 207 209 209 210 214 220 227 230 228 222 221 224 225 221 220 222 223 227 231 232 231 228 226 225 225 227 228 227 226 227 230 234 235 233 231 231 232 232 233 236 236 234 235 240 242 243 244 243 242
321 82 105 28 12 308 167 129 132 124 139 139 105 85 79 96 112 116 115 102 91 87 88 90 90 86 83 91 86 88 145 165 171 175 171 166 169 169 170 178 174 165 161 166 178 188 199 204 206 211 210 209 213 220 230 237 239 236 234 234 234 230 227 227 225 225 229 233 235 234 232 230 229 229 228 227 227 227 229 232 233 232 231 231 230 230 231 233 236 236 235 239 242 243 242 238 237
193 78 41 65 89 269 254 153 140 118 165 117 93 106 135 124 125 126 122 106 101 94 86 80 72 74 74 75 74 64 97 154 166 177 177 170 171 171 173 173 159 147 154 168 185 197 203 202 203 210 210 208 210 216 224 229 233 237 239 238 239 238 234 234 233 228 227 233 238 238 236 235 232 232 231 229 229 230 230 232 232 231 230 228 226 226 228 230 234 236 238 240 241 242 241 237 234
68 131 309 16 160 260 316 158 135 125 183 114 101 109 140 141 140 136 126 106 105 102 93 85 76 74 74 73 76 73 71 73 81 128 166 166 165 169 168 155 143 154 169 177 185 195 207 208 204 210 213 213 216 219 222 226 233 239 239 237 241 241 234 235 239 235 233 235 237 237 235 233 231 230 232 231 229 229 231 233 235 233 230 226 223 223 226 231 233 234 238 240 240 241 242 240 237
356 137 217 199 168 254 25 37 114 135 156 68 101 123 138 148 148 142 126 111 108 106 102 96 88 79 76 76 72 74 74 66 59 68 130 149 145 161 165 146 137 142 155 173 182 191 207 213 211 215 218 219 224 228 229 232 238 242 240 238 243 244 237 233 236 241 242 237 236 237 235 232 229 228 230 232 230 228 229 232 235 234 230 225 222 222 226 231 235 236 238 240 240 242 244 244 243
317 233 218 209 165 191 126 76 35 122 114 69 91 114 130 142 138 135 127 117 111 109 110 104 99 88 77 77 70 70 68 65 55 53 95 141 128 140 157 157 143 119 126 160 181 197 213 222 222 222 224 228 232 234 235 234 235 238 238 238 246 251 248 241 240 244 241 232 230 232 232 232 231 230 231 233 234 233 230 231 234 234 231 228 225 225 227 230 234 236 238 240 241 242 244 245 247
216 214 219 207 163 165 152 138 131 109 105 105 101 102 120 123 119 124 127 122 114 113 117 112 105 95 87 81 75 76 73 69 60 61 82 128 119 118 134 135 130 116 122 143 177 203 216 225 230 232 234 236 238 239 236 233 236 240 243 245 251 255 258 259 255 253 243 234 232 230 232 234 232 231 232 232 235 238 236 233 234 236 235 233 230 227 226 228 231 233 235 239 242 244 244 245 249
186 213 190 160 151 166 147 129 144 123 109 119 122 124 136 133 127 127 129 123 116 118 118 112 109 101 96 88 79 82 84 74 70 76 85 102 103 105 122 116 114 123 136 157 192 210 215 214 220 228 230 229 231 235 237 241 244 245 248 251 253 257 261 263 261 259 253 245 240 235 236 239 233 231 230 230 234 238 239 234 231 236 239 237 232 229 227 228 230 231 233 236 240 242 243 245 248
164 151 105 125 126 157 144 125 151 130 111 145 139 135 144 142 138 134 132 121 118 125 123 119 118 113 105 99 94 88 85 76 78 84 87 94 95 93 110 117 119 129 150 177 199 217 227 225 223 224 226 227 228 230 238 247 250 251 254 256 261 268 271 271 266 260 254 249 239 229 233 240 235 231 231 232 236 237 237 236 234 235 238 236 234 233 233 232 231 233 234 235 237 237 238 242 245
78 96 99 92 91 124 111 124 168 141 109 172 148 128 136 143 142 140 135 126 130 138 132 133 126 119 117 109 109 101 88 55 67 80 84 88 92 90 94 112 123 132 153 205 221 234 243 240 240 243 244 241 238 242 250 251 253 259 262 266 273 276 274 271 268 266 263 262 252 236 232 230 224 226 228 230 234 235 235 236 237 234 233 234 233 233 234 233 231 230 229 229 232 234 236 241 241
55 81 99 83 61 38 354 84 166 128 99 164 135 115 120 131 135 140 136 127 134 138 129 135 130 124 131 123 124 123 102 61 54 69 80 85 90 95 93 94 112 127 138 199 246 245 248 242 244 254 253 249 252 256 259 253 249 253 262 275 282 278 274 271 272 276 276 271 263 250 240 227 218 221 223 226 232 235 234 235 236 233 231 234 235 231 231 232 232 230 229 228 229 231 235 239 238
59 74 101 115 100 103 335 310 128 81 92 130 114 99 89 86 98 90 110 120 120 123 121 126 131 133 143 139 134 132 113 85 75 65 69 80 85 87 85 77 78 108 133 151 202 247 264 253 253 276 274 273 279 265 256 252 251 259 276 292 294 286 282 278 276 275 273 273 264 250 242 233 223 220 221 226 232 233 232 234 236 235 235 238 238 232 230 233 235 234 233 231 227 224 228 232 234
63 92 128 148 163 157 179 198 110 61 70 117 109 79 33 67 119 103 95 116 119 126 127 123 131 135 134 128 122 125 125 117 107 95 82 81 83 81 74 71 58 70 117 150 178 214 270 264 262 298 304 301 305 297 293 283 279 289 294 297 296 291 284 279 274 265 259 260 248 235 232 228 222 221 223 228 231 231 232 235 237 236 236 236 236 236 235 236 237 238 236 231 226 223 224 224 227
48 72 167 146 157 167 150 132 103 70 78 163 122 92 321 287 151 144 134 129 133 138 136 133 135 132 126 125 125 129 130 126 124 125 126 92 79 84 73 69 85 60 67 112 156 199 275 286 275 292 299 302 309 312 315 311 304 304 301 300 299 294 288 283 279 267 253 247 236 229 228 225 224 227 229 231 235 235 233 233 232 232 233 232 233 236 238 237 238 240 238 231 227 227 223 217 221
42 242 175 139 111 100 110 113 107 111 182 211 162 114 171 238 199 171 154 143 148 147 140 142 143 139 139 139 138 140 135 130 131 130 126 115 104 109 98 56 109 87 34 26 15 355 339 322 301 300 305 310 313 313 311 308 304 305 304 301 299 296 292 290 286 276 268 266 259 249 241 235 232 226 222 227 234 236 232 229 230 232 234 235 235 236 239 241 242 243 240 235 232 228 218 214 221
254 242 155 110 80 75 116 113 113 172 171 175 131 101 125 194 216 192 155 140 148 154 150 153 155 152 149 146 146 146 144 141 139 141 137 143 154 163 175 196 197 32 29 15 1 356 347 334 321 311 307 307 307 304 300 294 289 289 290 288 287 288 290 290 288 283 280 278 269 261 256 252 241 222 215 222 225 230 232 234 237 236 237 240 240 241 244 248 249 245 241 237 233 226 218 218 222
242 243 69 27 18 347 328 73 91 52 92 94 253 106 104 225 221 165 155 146 157 172 167 165 164 162 157 150 152 149 147 154 151 150 159 167 173 180 190 186 181 215 27 17 1 353 346 343 336 321 312 306 305 303 296 289 286 287 287 283 279 281 284 283 283 284 284 282 275 268 261 254 246 232 229 229 220 223 233 239 241 238 239 241 243 245 247 249 249 246 241 237 232 226 222 220 220
248 79 51 22 18 351 329 249 131 45 56 235 223 150 112 236 198 161 180 176 177 181 173 172 169 163 161 152 154 152 149 161 156 154 171 179 181 184 190 180 158 185 87 27 18 11 5 1 351 341 338 332 328 326 314 304 303 303 300 293 286 284 284 281 279 281 285 286 284 279 270 256 246 239 238 234 227 231 239 244 245 245 247 248 248 249 248 248 249 247 244 241 234 229 225 220 219
24 48 41 25 16 6 6 47 90 65 311 257 217 172 140 190 211 188 200 191 173 171 166 174 167 156 161 154 153 156 155 164 157 157 167 165 170 174 169 157 118 93 77 60 59 38 14 1 350 344 346 344 340 340 335 327 322 316 309 303 295 290 289 291 287 283 285 287 283 277 272 260 248 246 248 244 240 242 241 242 247 250 252 253 256 259 259 256 253 248 245 241 237 233 229 224 222
72 63 53 35 356 2 18 1 43 89 262 277 233 169 134 162 227 215 216 188 158 167 168 169 165 159 164 157 153 155 155 159 150 151 143 123 136 141 129 123 91 87 86 73 58 29 9 4 356 347 344 341 339 339 338 335 332 326 321 315 305 294 289 292 292 287 287 288 286 283 273 257 241 239 244 243 242 243 240 242 248 253 255 258 261 264 265 262 256 251 247 244 241 235 231 229 226
58 65 65 55 359 8 15 329 11 192 247 266 135 107 111 216 236 230 218 186 165 174 167 161 161 160 164 158 153 155 151 147 135 137 136 125 139 131 106 109 104 100 91 70 55 39 26 14 1 350 344 342 343 345 341 339 340 338 333 326 314 301 290 291 294 292 289 285 286 289 284 269 246 241 248 247 246 250 253 256 257 258 263 267 269 268 265 262 257 254 252 250 247 242 238 234 229
38 76 100 93 77 57 353 289 340 293 263 283 10 73 45 267 305 301 215 172 163 161 148 154 157 157 162 154 147 147 134 131 132 136 143 152 159 145 121 123 116 108 94 76 75 68 47 20 3 351 344 343 346 350 346 343 345 342 337 330 319 310 301 300 301 297 291 283 284 292 294 286 273 267 268 264 261 262 264 266 266 268 272 273 273 268 264 264 259 256 256 255 253 251 246 238 235
292 154 128 122 142 144 196 232 197 255 267 305 346 46 96 234 305 311 188 140 136 136 136 144 148 150 148 136 135 134 124 130 140 147 160 172 173 161 135 126 120 112 96 87 93 88 63 31 12 353 342 341 344 348 346 344 346 345 342 334 322 316 309 301 301 312 310 293 284 290 294 290 284 279 279 281 280 275 275 277 274 273 274 273 271 266 262 264 259 256 256 254 254 253 247 242 242
282 101 86 110 173 151 153 192 181 197 275 322 352 34 310 206 339 339 85 117 120 129 134 136 137 136 131 129 135 135 136 152 160 165 182 189 187 174 138 127 123 112 96 99 109 98 71 43 15 354 346 343 342 342 339 339 345 349 351 344 327 323 320 308 303 309 315 307 292 284 282 286 287 286 285 285 283 279 281 281 274 271 272 271 269 266 264 263 259 258 257 254 254 254 247 240 237
291 29 55 213 170 128 124 254 300 67 63 313 18 91 332 9 14 353 82 113 118 133 142 141 137 136 135 138 146 145 153 166 172 181 189 194 198 182 142 132 129 117 114 125 119 96 73 52 12 356 353 345 341 342 340 341 344 346 351 350 338 335 333 328 324 315 308 308 302 293 289 286 286 289 290 288 285 283 283 282 276 271 270 269 266 265 265 264 261 260 257 254 253 250 244 236 231
118 276 225 197 87 79 101 120 357 40 72 289 349 144 205 156 92 298 122 125 141 155 151 138 134 140 143 149 156 159 169 171 179 193 190 190 192 170 143 137 135 127 140 137 114 89 76 49 5 356 356 348 347 353 355 351 346 344 346 348 345 344 342 338 334 328 321 315 310 304 299 295 293 296 297 294 293 292 289 283 278 273 269 269 269 267 266 264 262 261 257 254 252 247 242 238 235
121 181 185 114 93 351 38 111 98 54 273 297 346 169 212 190 174 191 173 161 167 172 159 141 144 150 150 159 167 170 175 175 183 197 198 187 167 155 148 146 151 156 148 128 101 72 57 21 355 348 348 350 355 0 358 350 346 348 349 350 350 347 345 340 332 328 323 317 315 312 308 306 306 306 305 302 300 298 293 286 279 273 269 269 271 269 266 264 263 261 256 252 251 245 237 238 240
45 59 30 63 148 166 170 155 147 152 213 272 307 206 241 230 196 185 186 180 173 173 168 155 157 161 160 165 170 175 179 180 187 187 178 158 151 154 157 161 167 163 146 121 89 46 18 360 347 339 342 351 0 1 355 348 346 351 352 352 351 347 347 344 337 331 325 322 321 318 317 316 315 316 315 311 307 303 299 294 286 278 272 271 271 268 264 262 259 256 251 247 248 245 236 236 240
50 51 22 354 11 97 157 248 129 137 150 179 173 228 259 252 197 185 190 186 174 170 166 162 165 167 167 170 171 175 179 182 189 180 160 152 157 163 168 169 166 159 148 127 103 33 1 349 341 337 341 349 358 1 356 348 346 348 348 349 349 350 352 349 345 338 330 326 323 321 322 321 319 321 320 315 312 309 306 301 293 284 276 273 272 269 265 260 256 253 250 248 250 248 237 232 235
140 141 166 178 146 92 113 290 305 106 135 161 159 219 263 259 191 185 188 180 176 171 160 161 169 168 170 175 173 172 175 182 188 178 165 164 169 174 173 167 164 161 153 142 137 337 345 346 339 335 339 345 353 359 357 350 346 346 346 346 347 351 355 353 350 347 341 334 328 325 324 322 321 321 318 316 315 314 313 308 299 290 281 272 268 267 265 260 255 254 254 252 251 245 236 232 235
Height
762 764 764 766 767 769 773 774 789 793 791 802 796 794 790 774 774 777 779 778 780 777 766 768 768 769 777 784 788 787 790 794 798 806 810 797 791 797 799 802 804 806 810 812 814 816 817 819 819 820 821 822 823 824 825 827 828 829 830 831 832 833 833 834 835 835 836 837 838 839 840 841 842 843 844 845 846 847 848 849 849 850 850 851 851 851 852 853 853 853 853 854 854 855 855 856 857
761 763 763 766 765 772 776 773 794 799 797 808 798 792 786 773 777 783 783 780 780 774 766 768 770 772 775 777 778 783 791 790 785 790 794 791 795 799 800 803 804 806 810 812 814 816 818 819 820 821 822 823 824 826 827 828 829 830 831 832 833 834 835 836 836 837 838 839 839 840 841 842 844 845 846 847 847 848 849 850 850 851 851 852 852 853 853 854 854 854 855 855 856 856 856 857 858
761 761 762 766 766 770 773 776 794 801 805 813 801 787 780 781 784 781 777 775 772 767 767 770 772 775 777 783 784 791 800 792 783 785 791 794 796 799 802 803 805 808 810 812 814 816 818 819 821 822 823 824 825 827 828 829 830 831 832 833 834 835 835 837 837 838 839 840 841 842 843 844 845 846 847 848 848 849 850 851 852 852 853 853 853 854 854 854 855 855 856 856 857 857 857 858 859
758 760 762 763 769 773 777 788 795 798 807 809 802 787 778 783 780 776 772 768 765 764 769 771 777 776 777 793 791 793 800 793 787 785 791 795 795 799 801 804 807 809 811 812 814 816 818 820 821 822 823 825 826 828 829 830 831 832 833 834 835 835 836 837 838 839 840 841 842 843 844 845 846 847 848 849 850 850 851 852 853 853 853 854 854 854 855 855 855 856 856 857 857 857 858 859 860
757 759 760 762 772 775 779 793 795 797 799 795 797 786 777 778 774 775 771 767 764 764 768 771 782 778 775 787 786 794 798 792 790 786 790 795 797 800 801 805 807 809 812 813 814 816 818 820 821 822 824 825 826 828 829 830 831 832 833 834 835 836 837 838 839 839 841 842 843 844 844 845 846 847 848 849 851 851 853 853 854 854 854 854 854 855 855 855 856 856 856 857 857 858 859 860 861
757 758 759 761 766 766 780 795 796 796 783 776 786 780 773 771 770 772 769 768 765 764 767 770 780 782 784 784 781 789 789 788 791 789 791 795 798 800 802 805 807 810 812 813 815 816 818 820 821 823 824 825 827 828 829 830 831 832 833 834 835 836 837 838 839 840 841 842 843 844 845 846 847 848 849 850 851 852 853 854 855 855 855 855 855 855 855 856 856 856 856 857 857 858 859 860 861
755 759 761 766 766 765 786 796 794 795 774 763 773 771 769 767 765 768 771 773 772 768 767 771 773 782 793 787 786 786 783 785 786 790 792 795 799 800 804 806 808 811 812 814 816 816 818 820 821 823 824 826 827 828 829 830 831 832 833 834 835 836 838 839 840 841 842 843 843 844 845 846 848 849 849 850 851 853 854 855 855 855 856 856 856 856 856 856 856 856 856 857 858 858 859 860 861
754 760 761 771 780 777 789 792 786 785 770 758 761 762 762 762 761 766 773 775 778 775 772 775 770 785 797 787 794 790 783 787 785 791 794 795 799 801 805 806 809 811 814 815 816 818 819 821 823 824 825 827 827 829 830 831 832 833 834 834 835 837 838 839 840 842 843 843 844 845 845 846 847 848 849 850 851 852 854 855 855 856 856 856 856 857 856 857 856 856 857 857 858 858 859 860 861
754 761 762 774 789 789 792 791 782 773 764 759 757 757 756 757 759 764 772 774 775 776 777 776 770 787 798 791 798 791 785 790 788 793 795 799 800 802 805 806 809 811 814 816 817 820 820 823 824 825 826 827 828 830 831 832 833 834 835 835 836 837 838 839 841 842 843 844 845 845 846 846 847 848 849 850 852 853 853 854 855 856 856 857 857 857 857 857 857 857 857 857 858 858 859 860 861
757 761 766 779 791 796 796 791 783 772 762 758 757 754 754 756 759 763 769 773 773 777 779 774 773 787 795 798 801 792 790 792 792 796 797 800 802 804 806 807 809 810 814 816 818 820 821 824 824 826 827 828 829 830 832 833 834 835 835 836 837 838 839 840 841 843 844 844 845 845 846 847 848 849 850 851 852 853 853 854 854 855 856 857 857 857 857 857 857 857 857 857 858 858 859 860 861
764 763 765 783 794 799 798 791 784 775 763 756 756 751 751 753 759 765 767 773 773 777 779 775 783 788 793 800 801 794 791 792 794 797 799 801 803 805 807 808 810 810 814 816 818 820 822 824 825 826 827 829 830 831 833 833 835 835 836 837 837 838 839 841 842 843 844 845 845 846 847 847 849 849 850 851 852 853 853 854 854 855 855 856 856 857 857 857 857 857 857 857 858 859 859 860 861
771 770 769 789 796 796 794 791 784 774 765 759 760 751 747 751 760 769 769 774 775 779 778 775 783 784 796 806 800 795 792 794 796 797 800 801 803 806 807 809 811 812 814 816 819 821 822 824 826 827 828 830 830 832 833 834 835 836 837 837 838 839 840 841 842 843 844 845 846 846 848 848 849 850 851 851 852 853 853 854 854 855 855 855 855 856 856 856 856 856 857 857 857 858 859 860 860
771 772 776 790 790 791 790 789 782 775 773 766 763 752 748 755 763 768 770 774 776 782 779 772 774 778 797 805 797 796 794 795 796 798 800 801 804 806 808 810 812 813 815 817 819 821 823 825 826 828 829 830 832 833 834 835 836 836 838 838 838 839 840 842 842 843 844 845 846 846 847 848 849 850 851 851 852 853 853 854 854 854 854 855 855 855 855 855 856 855 856 856 856 857 858 860 860
763 764 774 788 785 787 786 786 783 781 783 770 761 753 753 762 763 764 768 777 778 777 774 766 768 780 796 801 801 798 794 795 796 799 801 802 805 805 808 810 813 815 816 818 820 822 823 825 827 828 830 831 833 834 835 836 836 837 838 838 839 840 841 842 842 843 844 845 846 846 847 848 849 849 850 850 851 852 852 853 853 854 854 854 855 855 855 855 855 855 855 855 855 856 857 859 860
755 758 769 785 786 786 783 782 782 784 786 772 762 755 760 766 761 765 768 775 778 767 767 768 765 781 795 796 801 795 790 795 795 798 801 803 805 806 809 810 813 815 817 819 820 823 824 826 827 828 829 830 832 834 835 836 837 838 838 840 840 840 841 842 842 843 844 845 846 847 847 848 849 849 850 850 851 851 852 852 853 853 853 853 854 854 854 854 854 854 854 854 854 855 856 858 859
748 756 773 788 790 792 785 778 779 786 785 772 761 754 767 772 761 770 767 766 775 767 768 774 766 773 785 784 785 784 787 793 795 798 801 804 806 808 810 811 814 816 818 820 821 824 824 826 827 828 829 830 832 834 836 836 838 838 839 840 840 841 842 842 843 843 844 845 846 847 848 848 849 849 849 850 850 851 851 851 852 852 853 853 853 853 853 853 854 854 854 854 854 854 855 856 858
746 761 783 793 793 795 785 778 780 785 781 771 763 756 772 781 768 768 764 763 776 775 772 774 767 767 776 778 777 779 786 790 794 798 800 804 807 809 811 812 814 816 819 820 822 824 825 826 827 828 829 830 832 833 835 836 837 838 839 840 840 841 841 842 843 843 844 845 846 847 847 848 848 849 849 850 850 851 851 851 851 852 852 852 852 852 852 853 853 853 853 853 853 853 854 855 857
756 774 788 793 792 788 778 774 773 774 777 773 767 762 770 781 776 769 769 775 778 779 778 774 772 771 775 778 780 783 787 789 792 796 799 803 806 809 811 812 814 816 818 820 822 823 825 826 827 828 829 830 832 833 834 835 837 837 838 839 839 841 841 842 843 844 845 845 846 846 847 848 848 849 849 849 850 850 851 851 851 851 852 852 852 852 852 852 853 853 853 853 852 852 853 854 856
763 778 787 789 784 776 765 764 764 767 774 771 767 765 768 776 775 769 779 789 783 786 788 781 783 783 781 781 784 788 790 792 793 796 800 803 806 809 811 813 815 816 818 820 822 823 824 826 827 828 828 830 831 833 834 835 837 837 838 839 839 841 842 843 844 845 846 846 847 847 847 847 848 848 849 849 849 850 850 850 850 851 851 851 851 851 851 852 852 853 853 852 852 852 852 853 855
762 772 787 784 772 767 759 758 759 762 767 770 772 767 768 772 769 771 783 792 788 791 792 789 793 790 787 786 786 791 793 795 796 798 801 804 807 810 812 814 815 817 819 821 823 824 824 825 826 827 828 830 831 833 835 836 837 838 838 839 840 841 842 844 845 846 847 847 847 847 847 848 848 848 849 849 849 849 850 850 850 850 850 850 850 850 851 851 852 852 852 852 851 851 851 851 853
760 766 779 773 764 767 761 757 757 758 762 769 773 771 774 772 767 774 782 793 796 791 786 786 791 789 788 788 787 791 794 797 799 801 803 805 808 810 813 815 817 818 820 822 823 824 824 825 825 827 829 830 833 834 836 838 838 839 839 840 840 841 842 843 844 844 844 845 845 846 847 848 848 848 849 849 849 849 849 850 849 849 849 849 850 850 850 851 851 852 852 852 851 851 851 851 852
760 764 765 761 761 767 762 756 757 757 760 766 772 775 777 771 771 777 780 792 795 786 780 779 781 783 785 787 788 791 793 797 800 801 803 806 808 810 814 816 818 819 821 822 822 823 824 825 826 827 830 832 834 836 837 839 840 840 840 840 840 840 841 841 841 841 841 842 843 844 846 847 848 848 849 849 849 849 849 850 849 849 849 849 849 849 850 850 851 851 852 852 851 851 851 851 851
762 766 759 757 757 762 761 756 757 757 761 768 772 773 770 773 780 778 779 786 781 774 775 775 777 779 782 785 788 791 794 796 798 800 802 805 808 810 814 816 818 820 821 822 823 824 825 825 827 828 830 832 834 837 838 840 840 840 840 840 839 839 840 839 839 839 840 841 842 843 844 846 847 848 848 848 849 849 849 849 849 850 849 849 849 849 849 849 850 851 851 851 852 852 851 851 851
761 767 760 757 756 757 758 756 757 757 764 768 766 770 772 780 785 781 782 780 772 770 772 773 777 779 783 787 789 792 794 796 798 800 802 804 808 811 813 815 817 819 821 823 824 825 826 826 827 828 829 831 833 835 838 839 840 840 839 839 838 838 838 837 837 838 839 840 841 842 842 844 846 847 848 848 848 848 849 849 849 850 849 849 849 849 848 848 849 849 850 851 851 852 851 851 851
760 764 759 756 755 755 755 756 759 759 764 765 766 775 778 778 781 785 787 779 771 771 772 775 779 782 785 788 791 793 795 797 799 800 802 804 807 810 813 814 816 818 819 821 823 824 826 826 827 828 829 829 831 833 836 839 839 837 836 836 836 837 836 835 835 836 837 838 840 840 841 842 843 845 846 847 847 847 848 848 849 850 850 850 849 849 848 847 848 848 849 850 851 851 851 851 851
759 758 757 756 757 754 754 757 760 762 764 765 773 783 781 773 777 789 789 779 774 773 775 778 781 786 788 789 791 793 795 797 799 800 802 804 806 809 811 813 814 816 818 819 821 823 824 826 827 827 828 828 829 832 833 832 830 830 832 834 834 834 833 833 833 834 835 836 838 839 839 839 840 842 843 845 846 846 846 847 848 849 849 850 849 849 848 847 847 848 849 849 850 850 851 851 851
752 753 755 754 756 753 753 758 759 764 766 765 776 788 784 773 780 798 792 779 777 778 782 782 784 789 789 791 791 792 794 795 797 799 801 803 804 806 808 811 813 814 816 818 820 822 824 825 826 827 828 828 828 828 826 822 822 824 828 830 831 832 832 832 832 832 833 834 835 836 837 837 838 838 840 841 842 843 844 845 847 848 848 849 849 849 848 847 847 847 848 848 849 849 849 850 850
749 752 756 755 755 755 755 761 762 766 771 767 773 787 787 781 789 800 791 780 780 783 788 787 789 792 790 792 792 792 794 795 797 798 799 801 801 803 806 808 811 813 815 818 820 822 824 825 827 828 829 829 828 825 823 822 822 823 825 826 827 830 832 832 832 831 831 831 832 833 834 835 835 835 836 837 838 840 841 842 844 846 847 847 848 848 848 847 846 847 847 848 848 848 848 848 849
751 752 764 765 761 764 762 763 764 766 775 766 769 794 802 796 798 796 787 783 782 786 791 791 792 793 792 792 793 794 794 795 796 797 797 798 799 801 804 807 808 811 815 819 822 824 825 825 826 828 829 829 828 826 826 826 824 825 825 825 825 827 829 829 828 830 829 829 830 831 832 833 834 834 834 834 835 836 837 839 841 842 844 845 846 847 847 847 846 846 846 846 847 846 846 847 847
757 757 767 774 776 777 765 762 766 768 774 761 768 812 821 805 799 792 786 783 785 792 794 793 793 793 794 794 794 795 794 795 795 796 797 797 799 801 803 806 809 813 819 823 825 824 823 822 823 824 825 827 826 826 826 824 824 825 825 824 824 825 826 825 825 827 826 827 828 830 832 833 833 833 833 833 833 834 835 836 837 839 840 842 844 845 845 846 845 845 845 845 846 845 845 846 846
763 767 772 781 792 787 766 762 768 774 776 759 772 818 825 807 800 791 785 784 787 796 796 795 795 795 797 796 797 797 795 795 795 795 796 797 799 802 804 807 811 815 817 818 819 817 816 817 819 819 820 821 820 819 818 819 821 823 823 822 822 823 824 825 825 825 824 824 827 829 831 832 833 833 833 833 833 834 835 835 836 836 837 839 840 842 843 844 844 844 844 845 845 845 845 845 845
767 780 789 790 794 789 771 763 766 776 778 762 776 816 821 807 801 791 786 786 789 797 799 798 798 798 799 798 798 799 796 795 796 796 797 798 801 803 806 809 811 814 813 813 813 813 814 815 817 816 816 817 815 814 815 819 823 824 824 822 821 821 823 825 827 827 827 827 827 828 830 831 833 832 832 831 832 834 835 835 834 834 835 836 838 839 840 841 841 842 842 843 843 844 844 844 844
775 784 795 793 792 792 783 772 765 769 776 771 778 807 817 807 799 793 788 788 792 798 801 801 801 801 800 800 800 799 798 798 798 798 798 800 803 805 808 809 810 813 816 816 815 814 814 815 816 815 815 815 815 816 818 821 824 826 826 823 821 820 819 822 826 829 831 830 829 829 830 831 832 832 831 831 830 831 832 833 833 832 833 834 835 836 837 838 839 840 840 841 842 842 843 843 843
786 786 791 790 788 792 791 785 774 767 776 783 785 798 809 804 797 795 791 790 795 800 803 803 802 802 802 802 802 801 801 801 800 800 799 801 804 806 808 809 811 814 816 817 815 814 814 815 815 815 814 813 814 816 817 819 821 824 824 822 820 818 818 820 822 824 826 827 827 827 829 831 832 831 831 830 830 830 830 831 831 831 831 831 832 833 834 836 837 838 838 838 839 840 841 841 842
791 789 790 791 788 789 791 790 782 773 780 791 795 803 807 803 798 796 793 791 796 801 803 804 803 803 803 803 804 804 804 804 803 802 802 803 805 808 810 811 813 815 817 819 818 814 813 815 816 815 814 813 814 815 816 818 819 821 820 818 816 815 816 817 817 818 820 822 822 824 825 826 827 827 827 828 828 829 830 830 830 830 829 829 829 830 831 833 834 835 836 836 837 838 839 840 840
786 782 782 788 789 789 787 784 778 774 786 796 798 806 808 806 803 800 797 794 797 802 802 804 805 804 805 805 806 806 806 806 804 804 805 806 807 809 812 813 815 815 817 820 820 817 814 816 818 815 813 814 815 816 817 818 818 817 815 813 812 811 812 813 814 815 817 818 819 819 820 820 821 822 823 826 827 828 828 828 828 827 827 826 826 827 828 829 830 832 833 834 834 836 837 838 839
776 776 779 785 787 789 783 782 776 769 788 801 795 801 806 805 804 801 799 797 800 804 805 806 807 807 807 807 807 807 807 806 805 806 807 808 809 810 812 815 815 815 815 816 817 816 814 815 817 815 813 813 814 815 816 816 816 815 811 809 808 807 808 810 812 813 814 815 815 815 816 817 818 819 821 823 824 825 825 825 825 824 824 823 823 824 825 826 827 829 830 831 831 832 834 835 836
771 775 782 787 788 787 779 781 779 768 784 802 795 801 809 806 805 802 798 801 804 804 805 807 807 808 808 808 809 808 807 806 805 806 807 808 809 809 811 813 814 814 814 812 812 812 811 811 812 812 812 813 814 814 814 815 815 814 810 807 806 806 806 807 808 810 811 811 812 813 813 814 816 817 817 818 819 820 820 820 820 821 821 820 820 821 823 824 824 826 827 828 828 829 829 831 833
773 777 785 792 789 787 784 779 777 773 785 803 802 806 814 808 805 803 799 801 804 802 802 805 806 808 810 809 809 809 809 808 807 806 807 807 808 809 810 811 813 814 813 812 810 809 809 808 809 810 811 812 813 814 814 814 814 813 811 808 806 805 805 806 806 806 806 806 807 809 810 812 813 813 813 813 814 814 814 814 815 817 818 818 818 819 820 821 821 823 824 824 825 826 827 828 830
776 780 788 794 787 790 796 786 780 780 786 800 805 810 816 812 809 807 803 801 802 803 803 804 805 807 809 808 808 809 810 810 808 807 806 806 808 809 809 810 812 813 814 813 811 810 809 808 809 809 810 811 812 813 813 813 812 811 810 807 806 805 804 804 803 803 802 801 802 803 806 809 809 809 810 809 808 808 808 809 810 812 814 815 816 816 816 817 818 819 820 821 822 823 824 825 827
780 779 785 791 786 787 791 786 783 787 791 795 803 820 825 817 817 816 808 804 804 805 806 807 806 806 806 807 808 809 809 809 809 808 807 807 808 809 810 810 811 812 814 815 814 813 811 810 810 810 810 810 811 811 811 811 810 809 808 806 806 805 803 803 802 801 800 798 798 799 801 802 803 804 805 805 805 805 805 806 807 808 810 811 812 812 812 812 813 815 816 817 819 820 821 823 825
784 779 778 779 781 781 782 783 787 803 814 799 798 831 841 822 820 822 813 811 811 809 809 810 809 808 808 809 809 809 809 809 809 808 808 808 808 809 810 811 811 812 813 815 815 814 813 812 811 811 810 809 809 808 808 808 807 807 806 805 805 804 803 801 801 801 800 799 798 799 799 798 798 800 801 803 804 804 804 804 805 806 806 807 808 808 808 809 810 810 812 813 815 816 819 821 822
788 779 771 772 775 778 780 782 790 808 818 798 790 823 843 831 824 822 816 817 817 813 812 811 810 810 809 809 809 809 809 809 809 809 809 809 809 810 810 810 811 812 813 813 814 814 814 813 812 811 810 808 807 807 806 806 806 806 805 804 804 803 802 800 800 800 799 798 798 798 798 798 799 799 799 801 803 803 803 803 803 803 804 804 804 805 805 806 806 807 808 809 810 813 816 817 817
786 771 766 772 775 779 781 783 790 797 800 798 795 807 833 841 829 819 817 820 821 817 815 813 810 811 810 809 809 808 809 809 809 810 810 810 810 810 810 810 810 811 812 812 813 813 813 812 812 811 810 808 807 806 806 806 805 805 804 803 802 802 800 799 798 798 796 797 797 796 795 797 799 799 798 798 800 801 801 801 801 800 801 801 801 802 803 803 803 804 805 806 807 809 811 811 813
776 763 763 768 770 774 776 780 789 791 796 811 808 802 827 843 827 818 821 823 825 820 815 814 811 810 810 809 809 808 808 808 808 810 810 810 810 810 810 810 811 811 812 812 812 812 812 811 811 810 809 808 807 806 805 805 805 804 803 802 801 799 798 797 796 796 795 795 796 795 794 794 796 797 798 797 798 799 799 799 798 798 798 798 799 800 800 800 801 801 801 801 802 804 806 807 810
764 758 763 766 770 772 774 782 788 793 804 813 808 801 821 840 830 824 826 824 823 819 814 813 811 810 810 809 809 809 809 808 808 809 809 810 810 810 811 811 811 811 811 811 811 812 812 811 810 809 808 807 807 806 805 804 804 803 802 801 800 798 796 796 795 794 793 793 793 793 793 795 797 798 797 797 797 797 798 797 796 796 795 795 796 797 797 797 797 797 796 797 798 799 802 803 807
758 763 769 772 777 777 781 787 787 803 814 805 800 798 808 832 835 824 820 813 810 812 814 813 811 810 810 809 809 809 809 809 809 809 809 810 810 811 811 811 811 811 811 811 810 811 811 810 810 809 808 807 805 804 803 802 802 801 800 799 798 797 795 795 794 792 791 790 789 790 792 794 796 797 797 797 797 796 796 796 794 794 793 793 793 793 794 794 794 793 793 793 794 796 798 800 803
761 772 777 783 791 789 792 795 795 816 822 803 797 797 800 822 828 814 805 800 798 804 809 810 810 811 810 809 809 809 809 809 809 810 810 810 811 811 811 810 810 810 810 810 810 810 810 810 809 808 808 807 805 804 803 802 801 800 799 797 796 794 794 793 792 790 790 789 787 787 789 792 794 796 797 797 796 795 794 793 793 792 791 790 790 790 790 791 791 791 791 791 791 792 794 797 799
768 778 784 797 811 814 816 817 817 824 818 801 797 798 805 816 813 804 799 796 797 798 799 803 806 808 809 809 809 808 809 809 809 810 810 810 811 810 810 810 810 810 809 810 810 810 809 809 809 809 808 807 806 805 804 802 801 799 798 796 794 793 792 792 790 789 788 787 786 786 787 790 793 795 794 792 791 791 790 790 790 790 789 788 787 786 786 787 787 788 788 788 789 790 792 793 795
776 781 789 804 820 834 841 835 832 828 813 798 793 798 813 816 805 800 796 793 795 795 796 800 801 805 808 808 808 808 808 809 809 810 810 810 809 809 808 809 809 809 809 809 809 809 809 809 808 808 808 807 806 805 804 803 801 799 797 795 793 793 792 791 789 787 785 785 785 785 785 785 787 789 789 788 787 787 787 787 787 787 787 786 785 783 783 783 784 786 786 786 786 788 789 790 790
776 775 782 797 807 823 835 833 832 830 816 804 799 807 822 821 808 798 792 790 792 794 796 799 801 803 805 806 808 808 808 809 809 809 809 808 808 807 808 808 808 808 808 808 808 808 808 808 808 807 807 806 805 804 803 802 801 799 796 794 793 792 791 789 787 785 784 784 784 784 783 783 783 785 785 785 785 784 784 783 783 783 782 782 782 782 781 780 781 783 784 784 784 784 785 786 787
777 772 781 793 793 798 814 820 818 818 820 817 816 821 822 813 804 796 792 793 793 795 797 800 804 805 805 808 809 808 809 809 808 808 808 807 806 806 807 807 807 807 807 807 807 806 807 807 807 807 806 805 804 803 802 801 800 798 796 794 792 791 789 788 786 785 783 783 782 781 781 782 782 782 782 782 782 781 781 780 779 779 777 776 777 778 779 778 778 779 780 781 781 781 782 783 784
780 781 787 786 779 784 803 817 811 813 826 827 824 831 824 813 811 803 798 799 799 800 800 802 805 806 807 809 809 809 809 808 807 806 805 805 804 805 805 806 806 806 806 806 805 805 805 805 806 806 805 805 803 802 800 799 798 797 795 794 792 790 789 787 785 784 783 782 781 781 781 781 781 781 780 779 779 778 778 777 776 776 774 772 772 773 774 775 776 776 777 777 777 778 779 779 780
779 787 783 776 778 783 796 815 820 824 835 829 825 835 833 828 825 812 804 806 804 802 802 804 807 807 808 809 808 808 806 806 805 804 803 803 802 803 804 804 805 805 805 805 804 804 804 804 805 805 804 804 803 801 799 798 797 796 795 793 792 791 789 787 786 784 783 782 781 781 780 780 779 779 777 777 776 775 774 774 773 774 772 770 768 768 769 770 771 772 772 772 772 773 774 775 776
767 774 768 775 794 801 801 814 824 831 839 833 829 836 832 826 822 813 809 809 804 803 803 805 807 807 807 808 806 806 805 805 804 801 801 800 800 801 802 803 804 804 804 804 803 803 803 803 803 803 803 802 802 800 798 797 796 795 794 792 791 790 788 787 785 784 783 782 781 780 779 778 776 775 774 773 772 771 771 771 771 772 770 767 765 764 764 765 766 767 767 767 767 768 769 769 770
761 766 768 775 789 798 801 806 812 824 835 835 836 839 829 813 806 806 806 802 800 802 802 803 805 804 804 804 804 804 804 803 801 800 799 798 799 800 800 802 803 803 803 802 802 802 801 801 801 801 801 800 800 799 797 796 795 793 792 791 790 788 786 785 784 782 781 780 779 778 777 775 774 772 771 769 768 767 767 767 767 768 766 763 761 760 760 761 762 762 762 763 763 764 765 764 765
773 778 782 784 785 790 796 799 801 810 824 833 840 842 823 799 793 797 797 795 795 796 796 799 801 800 800 800 801 802 802 801 799 798 798 798 799 799 799 800 801 801 801 800 800 801 800 800 800 799 799 799 798 797 796 795 793 792 791 789 788 786 784 783 782 781 779 777 776 775 774 773 771 770 768 767 765 765 764 764 763 762 760 758 755 755 756 757 758 758 758 759 759 759 759 760 760
774 781 783 785 787 792 805 812 805 802 811 820 831 835 813 789 787 789 790 791 791 790 792 795 797 797 798 798 798 799 799 798 798 797 797 798 798 799 799 799 800 799 800 800 799 799 799 799 798 798 798 797 796 795 794 793 792 791 789 787 786 785 783 781 780 779 777 776 775 774 772 771 769 769 768 766 765 764 763 762 761 759 756 753 750 749 751 752 753 753 753 754 755 754 754 755 755